Time,TemperatureF,DewpointF,PressureIn,WindDirection,WindDirectionDegrees,WindSpeedMPH,WindSpeedGustMPH,Humidity,HourlyPrecipIn,Conditions,Clouds,dailyrainin,SoftwareType,DateUTC
2013-01-20 00:02:00,34.0,19.0,30.08,North,1,2.0,4.0,54,0.00,,,0.00,,2013-01-20 07:02:00,
2013-01-20 00:12:00,34.0,19.0,30.08,North,1,2.0,4.0,54,0.00,,,0.00,,2013-01-20 07:12:00,
2013-01-20 00:22:00,33.0,17.0,30.09,NNE,25,1.0,3.0,52,0.00,,,0.00,,2013-01-20 07:22:00,
2013-01-20 00:32:00,32.0,17.0,30.08,NNW,346,1.0,2.0,54,0.00,,,0.00,,2013-01-20 07:32:00,
2013-01-20 00:42:00,32.0,17.0,30.08,NNW,346,1.0,2.0,54,0.00,,,0.00,,2013-01-20 07:42:00,
2013-01-20 00:52:00,32.0,18.0,30.08,North,359,2.0,3.0,55,0.00,,,0.00,,2013-01-20 07:52:00,
2013-01-20 01:02:00,32.0,18.0,30.08,North,357,2.0,5.0,56,0.00,,,0.00,,2013-01-20 08:02:00,
2013-01-20 01:12:00,32.0,18.0,30.08,North,357,2.0,5.0,56,0.00,,,0.00,,2013-01-20 08:12:00,
2013-01-20 01:22:00,32.0,18.0,30.08,North,1,2.0,5.0,55,0.00,,,0.00,,2013-01-20 08:22:00,
2013-01-20 01:32:00,32.0,17.0,30.08,North,6,1.0,3.0,54,0.00,,,0.00,,2013-01-20 08:32:00,
2013-01-20 01:42:00,32.0,17.0,30.08,North,6,1.0,3.0,54,0.00,,,0.00,,2013-01-20 08:42:00,
2013-01-20 01:52:00,31.0,16.0,30.08,NNE,14,1.0,3.0,54,0.00,,,0.00,,2013-01-20 08:52:00,
2013-01-20 02:02:00,31.0,17.0,30.08,North,5,1.0,2.0,55,0.00,,,0.00,,2013-01-20 09:02:00,
2013-01-20 02:12:00,31.0,17.0,30.08,North,5,1.0,2.0,55,0.00,,,0.00,,2013-01-20 09:12:00,
2013-01-20 02:22:00,31.0,17.0,30.08,North,355,1.0,3.0,56,0.00,,,0.00,,2013-01-20 09:22:00,
2013-01-20 02:33:00,31.0,18.0,30.08,North,8,2.0,4.0,57,0.00,,,0.00,,2013-01-20 09:33:00,
2013-01-20 02:42:00,31.0,18.0,30.08,North,8,2.0,4.0,57,0.00,,,0.00,,2013-01-20 09:42:00,
2013-01-20 02:53:00,30.0,17.0,30.08,North,10,1.0,4.0,57,0.00,,,0.00,,2013-01-20 09:53:00,
2013-01-20 03:02:00,30.0,17.0,30.08,North,5,2.0,5.0,58,0.00,,,0.00,,2013-01-20 10:02:00,
2013-01-20 03:12:00,30.0,17.0,30.08,North,5,2.0,5.0,58,0.00,,,0.00,,2013-01-20 10:12:00,
2013-01-20 03:32:00,29.0,16.0,30.07,NNE,16,2.0,5.0,57,0.00,,,0.00,,2013-01-20 10:32:00,
2013-01-20 03:42:00,29.0,16.0,30.07,NNE,16,2.0,5.0,57,0.00,,,0.00,,2013-01-20 10:42:00,
2013-01-20 03:52:00,29.0,16.0,30.07,NNE,13,3.0,4.0,58,0.00,,,0.00,,2013-01-20 10:52:00,
2013-01-20 04:02:00,29.0,16.0,30.07,North,4,1.0,2.0,57,0.00,,,0.00,,2013-01-20 11:02:00,
2013-01-20 04:12:00,29.0,16.0,30.07,North,4,1.0,2.0,57,0.00,,,0.00,,2013-01-20 11:12:00,
2013-01-20 04:22:00,28.0,15.0,30.07,NNW,330,1.0,3.0,58,0.00,,,0.00,,2013-01-20 11:22:00,
2013-01-20 04:32:00,28.0,15.0,30.07,NNW,330,1.0,3.0,58,0.00,,,0.00,,2013-01-20 11:32:00,
2013-01-20 04:42:00,28.0,15.0,30.07,NNW,330,1.0,3.0,58,0.00,,,0.00,,2013-01-20 11:42:00,
2013-01-20 04:53:00,28.0,15.0,30.07,North,353,1.0,2.0,57,0.00,,,0.00,,2013-01-20 11:53:00,
2013-01-20 05:03:00,28.0,15.0,30.06,North,0,1.0,3.0,58,0.00,,,0.00,,2013-01-20 12:03:00,
2013-01-20 05:12:00,28.0,15.0,30.06,North,0,1.0,3.0,58,0.00,,,0.00,,2013-01-20 12:12:00,
2013-01-20 05:23:00,27.0,14.0,30.07,North,0,0.0,0.0,57,0.00,,,0.00,,2013-01-20 12:23:00,
2013-01-20 05:33:00,26.0,13.0,30.06,North,0,0.0,0.0,57,0.00,,,0.00,,2013-01-20 12:33:00,
2013-01-20 05:43:00,26.0,13.0,30.06,North,0,0.0,0.0,57,0.00,,,0.00,,2013-01-20 12:43:00,
2013-01-20 05:53:00,26.0,14.0,30.07,NNW,348,1.0,2.0,60,0.00,,,0.00,,2013-01-20 12:53:00,
2013-01-20 06:02:00,26.0,14.0,30.07,North,0,1.0,2.0,59,0.00,,,0.00,,2013-01-20 13:02:00,
2013-01-20 06:12:00,26.0,14.0,30.07,North,0,1.0,2.0,59,0.00,,,0.00,,2013-01-20 13:12:00,
2013-01-20 06:23:00,27.0,15.0,30.06,NNE,23,1.0,5.0,60,0.00,,,0.00,,2013-01-20 13:23:00,
2013-01-20 06:33:00,26.0,13.0,30.06,North,5,1.0,1.0,58,0.00,,,0.00,,2013-01-20 13:33:00,
2013-01-20 06:42:00,26.0,13.0,30.06,North,5,1.0,1.0,58,0.00,,,0.00,,2013-01-20 13:42:00,
2013-01-20 06:53:00,26.0,14.0,30.06,NW,315,1.0,2.0,59,0.00,,,0.00,,2013-01-20 13:53:00,
2013-01-20 07:02:00,25.0,12.0,30.06,WSW,248,0.0,2.0,58,0.00,,,0.00,,2013-01-20 14:02:00,
2013-01-20 07:12:00,25.0,12.0,30.06,WSW,248,0.0,2.0,58,0.00,,,0.00,,2013-01-20 14:12:00,
2013-01-20 07:22:00,23.0,11.0,30.06,West,270,0.0,1.0,59,0.00,,,0.00,,2013-01-20 14:22:00,
2013-01-20 07:32:00,23.0,11.0,30.06,North,0,0.0,1.0,59,0.00,,,0.00,,2013-01-20 14:32:00,
2013-01-20 07:42:00,23.0,11.0,30.06,North,0,0.0,1.0,59,0.00,,,0.00,,2013-01-20 14:42:00,
2013-01-20 07:53:00,22.0,10.0,30.06,NW,315,0.0,0.0,60,0.00,,,0.00,,2013-01-20 14:53:00,
2013-01-20 08:03:00,22.0,11.0,30.06,North,4,2.0,3.0,61,0.00,,,0.00,,2013-01-20 15:03:00,
2013-01-20 08:12:00,22.0,11.0,30.06,North,4,2.0,3.0,61,0.00,,,0.00,,2013-01-20 15:12:00,
2013-01-20 08:23:00,24.0,13.0,30.05,NNW,338,1.0,1.0,62,0.00,,,0.00,,2013-01-20 15:23:00,
2013-01-20 08:33:00,26.0,14.0,30.06,NW,326,2.0,6.0,59,0.00,,,0.00,,2013-01-20 15:33:00,
2013-01-20 08:42:00,26.0,14.0,30.06,NW,326,2.0,6.0,59,0.00,,,0.00,,2013-01-20 15:42:00,
2013-01-20 08:53:00,28.0,14.0,30.06,NNW,335,5.0,6.0,54,0.00,,,0.00,,2013-01-20 15:53:00,
2013-01-20 09:02:00,28.0,13.0,30.06,NNW,335,4.0,7.0,52,0.00,,,0.00,,2013-01-20 16:02:00,
2013-01-20 09:12:00,28.0,13.0,30.06,NNW,335,4.0,7.0,52,0.00,,,0.00,,2013-01-20 16:12:00,
2013-01-20 09:23:00,30.0,14.0,30.07,NW,307,3.0,5.0,51,0.00,,,0.00,,2013-01-20 16:23:00,
2013-01-20 09:33:00,31.0,15.0,30.07,NW,313,3.0,5.0,50,0.00,,,0.00,,2013-01-20 16:33:00,
2013-01-20 09:42:00,31.0,15.0,30.07,NW,313,3.0,5.0,50,0.00,,,0.00,,2013-01-20 16:42:00,
2013-01-20 09:53:00,31.0,14.0,30.07,NNW,329,2.0,8.0,49,0.00,,,0.00,,2013-01-20 16:53:00,
2013-01-20 10:03:00,32.0,15.0,30.07,NW,320,3.0,5.0,48,0.00,,,0.00,,2013-01-20 17:03:00,
2013-01-20 10:12:00,32.0,15.0,30.07,NW,320,3.0,5.0,48,0.00,,,0.00,,2013-01-20 17:12:00,
2013-01-20 10:22:00,33.0,15.0,30.07,West,280,3.0,6.0,46,0.00,,,0.00,,2013-01-20 17:22:00,
2013-01-20 10:33:00,34.0,15.0,30.07,West,268,2.0,6.0,45,0.00,,,0.00,,2013-01-20 17:33:00,
2013-01-20 10:42:00,34.0,15.0,30.07,West,268,2.0,6.0,45,0.00,,,0.00,,2013-01-20 17:42:00,
2013-01-20 10:53:00,36.0,16.0,30.06,NW,310,3.0,5.0,43,0.00,,,0.00,,2013-01-20 17:53:00,
2013-01-20 11:02:00,37.0,16.0,30.05,NW,310,5.0,7.0,42,0.00,,,0.00,,2013-01-20 18:02:00,
2013-01-20 11:12:00,39.0,17.0,30.05,West,275,3.0,6.0,40,0.00,,,0.00,,2013-01-20 18:12:00,
2013-01-20 11:23:00,39.0,17.0,30.05,West,275,3.0,6.0,40,0.00,,,0.00,,2013-01-20 18:23:00,
2013-01-20 11:33:00,41.0,17.0,30.04,WNW,296,3.0,5.0,38,0.00,,,0.00,,2013-01-20 18:33:00,
2013-01-20 11:43:00,41.0,17.0,30.04,WNW,296,3.0,5.0,38,0.00,,,0.00,,2013-01-20 18:43:00,
2013-01-20 11:53:00,42.0,18.0,30.02,West,267,3.0,5.0,37,0.00,,,0.00,,2013-01-20 18:53:00,
2013-01-20 12:02:00,44.0,18.0,30.02,WNW,302,3.0,6.0,35,0.00,,,0.00,,2013-01-20 19:02:00,
2013-01-20 12:12:00,44.0,18.0,30.02,WNW,302,3.0,6.0,35,0.00,,,0.00,,2013-01-20 19:12:00,
2013-01-20 12:22:00,45.0,18.0,30.00,WNW,290,3.0,6.0,33,0.00,,,0.00,,2013-01-20 19:22:00,
2013-01-20 12:33:00,46.0,18.0,29.99,NW,306,4.0,7.0,32,0.00,,,0.00,,2013-01-20 19:33:00,
2013-01-20 12:42:00,46.0,18.0,29.99,NW,306,4.0,7.0,32,0.00,,,0.00,,2013-01-20 19:42:00,
2013-01-20 12:53:00,47.0,18.0,29.99,NW,312,4.0,5.0,31,0.00,,,0.00,,2013-01-20 19:53:00,
2013-01-20 13:03:00,47.0,18.0,29.97,NW,321,2.0,6.0,31,0.00,,,0.00,,2013-01-20 20:03:00,
2013-01-20 13:12:00,47.0,18.0,29.97,NW,321,2.0,6.0,31,0.00,,,0.00,,2013-01-20 20:12:00,
2013-01-20 13:22:00,48.0,18.0,29.95,WNW,289,2.0,5.0,30,0.00,,,0.00,,2013-01-20 20:22:00,
2013-01-20 13:33:00,49.0,19.0,29.95,WSW,239,1.0,6.0,30,0.00,,,0.00,,2013-01-20 20:33:00,
2013-01-20 13:42:00,49.0,19.0,29.95,WSW,239,1.0,6.0,30,0.00,,,0.00,,2013-01-20 20:42:00,
2013-01-20 13:53:00,50.0,19.0,29.95,WSW,258,3.0,4.0,29,0.00,,,0.00,,2013-01-20 20:53:00,
2013-01-20 14:03:00,50.0,17.0,29.95,NW,318,3.0,4.0,27,0.00,,,0.00,,2013-01-20 21:03:00,
2013-01-20 14:13:00,50.0,17.0,29.95,NW,318,3.0,4.0,27,0.00,,,0.00,,2013-01-20 21:13:00,
2013-01-20 14:22:00,50.0,19.0,29.94,ESE,107,2.0,3.0,29,0.00,,,0.00,,2013-01-20 21:22:00,
2013-01-20 14:33:00,51.0,20.0,29.96,SW,222,1.0,3.0,29,0.00,,,0.00,,2013-01-20 21:33:00,
2013-01-20 14:43:00,51.0,20.0,29.96,SW,222,1.0,3.0,29,0.00,,,0.00,,2013-01-20 21:43:00,
2013-01-20 14:52:00,52.0,16.0,29.94,NW,319,4.0,5.0,24,0.00,,,0.00,,2013-01-20 21:52:00,
2013-01-20 15:03:00,52.0,17.0,29.94,WNW,283,2.0,3.0,25,0.00,,,0.00,,2013-01-20 22:03:00,
2013-01-20 15:12:00,52.0,17.0,29.94,WNW,283,2.0,3.0,25,0.00,,,0.00,,2013-01-20 22:12:00,
2013-01-20 15:22:00,52.0,16.0,29.94,WNW,294,2.0,4.0,24,0.00,,,0.00,,2013-01-20 22:22:00,
2013-01-20 15:33:00,52.0,15.0,29.94,WNW,297,2.0,3.0,23,0.00,,,0.00,,2013-01-20 22:33:00,
2013-01-20 15:43:00,52.0,15.0,29.94,WNW,297,2.0,3.0,23,0.00,,,0.00,,2013-01-20 22:43:00,
2013-01-20 15:53:00,52.0,17.0,29.94,NNE,14,1.0,3.0,25,0.00,,,0.00,,2013-01-20 22:53:00,
2013-01-20 16:03:00,52.0,16.0,29.93,NNE,33,1.0,2.0,24,0.00,,,0.00,,2013-01-20 23:03:00,
2013-01-20 16:13:00,52.0,16.0,29.93,NNE,33,1.0,2.0,24,0.00,,,0.00,,2013-01-20 23:13:00,
2013-01-20 16:23:00,52.0,17.0,29.93,SW,215,4.0,4.0,25,0.00,,,0.00,,2013-01-20 23:23:00,
2013-01-20 16:33:00,52.0,14.0,29.94,NW,323,2.0,3.0,22,0.00,,,0.00,,2013-01-20 23:33:00,
2013-01-20 16:42:00,52.0,14.0,29.94,NW,323,2.0,3.0,22,0.00,,,0.00,,2013-01-20 23:42:00,
2013-01-20 16:53:00,52.0,16.0,29.95,West,275,1.0,3.0,24,0.00,,,0.00,,2013-01-20 23:53:00,
2013-01-20 17:03:00,52.0,16.0,29.94,West,270,2.0,3.0,24,0.00,,,0.00,,2013-01-21 00:03:00,
2013-01-20 17:13:00,52.0,16.0,29.94,West,270,2.0,3.0,24,0.00,,,0.00,,2013-01-21 00:13:00,
2013-01-20 17:22:00,51.0,15.0,29.94,West,260,1.0,4.0,23,0.00,,,0.00,,2013-01-21 00:22:00,
2013-01-20 17:33:00,50.0,14.0,29.95,NW,315,1.0,2.0,23,0.00,,,0.00,,2013-01-21 00:33:00,
2013-01-20 17:43:00,50.0,14.0,29.95,NW,315,1.0,2.0,23,0.00,,,0.00,,2013-01-21 00:43:00,
2013-01-20 17:53:00,50.0,14.0,29.95,North,3,2.0,3.0,23,0.00,,,0.00,,2013-01-21 00:53:00,
2013-01-20 18:03:00,48.0,14.0,29.94,NNE,28,0.0,2.0,25,0.00,,,0.00,,2013-01-21 01:03:00,
2013-01-20 18:12:00,48.0,14.0,29.94,NNE,28,0.0,2.0,25,0.00,,,0.00,,2013-01-21 01:12:00,
2013-01-20 18:23:00,46.0,14.0,29.95,SSE,158,1.0,1.0,27,0.00,,,0.00,,2013-01-21 01:23:00,
2013-01-20 18:33:00,45.0,14.0,29.96,North,4,1.0,1.0,28,0.00,,,0.00,,2013-01-21 01:33:00,
2013-01-20 18:43:00,45.0,14.0,29.96,North,4,1.0,1.0,28,0.00,,,0.00,,2013-01-21 01:43:00,
2013-01-20 18:53:00,45.0,12.0,29.97,NNE,17,2.0,4.0,26,0.00,,,0.00,,2013-01-21 01:53:00,
2013-01-20 19:03:00,45.0,13.0,29.97,NNE,23,1.0,5.0,27,0.00,,,0.00,,2013-01-21 02:03:00,
2013-01-20 19:12:00,45.0,13.0,29.97,NNE,23,1.0,5.0,27,0.00,,,0.00,,2013-01-21 02:12:00,
2013-01-20 19:23:00,44.0,13.0,29.97,NE,39,1.0,2.0,28,0.00,,,0.00,,2013-01-21 02:23:00,
2013-01-20 19:33:00,43.0,12.0,29.98,NE,36,2.0,3.0,28,0.00,,,0.00,,2013-01-21 02:33:00,
2013-01-20 19:43:00,43.0,12.0,29.98,NE,36,2.0,3.0,28,0.00,,,0.00,,2013-01-21 02:43:00,
2013-01-20 19:53:00,43.0,12.0,29.97,NNW,339,5.0,7.0,28,0.00,,,0.00,,2013-01-21 02:53:00,
2013-01-20 20:03:00,44.0,12.0,29.97,North,6,2.0,5.0,27,0.00,,,0.00,,2013-01-21 03:03:00,
2013-01-20 20:12:00,44.0,12.0,29.97,North,6,2.0,5.0,27,0.00,,,0.00,,2013-01-21 03:12:00,
2013-01-20 20:23:00,43.0,11.0,29.98,NW,326,3.0,6.0,27,0.00,,,0.00,,2013-01-21 03:23:00,
2013-01-20 20:33:00,42.0,12.0,29.99,North,4,4.0,5.0,29,0.00,,,0.00,,2013-01-21 03:33:00,
2013-01-20 20:43:00,42.0,12.0,29.99,North,4,4.0,5.0,29,0.00,,,0.00,,2013-01-21 03:43:00,
2013-01-20 20:53:00,42.0,12.0,29.99,NW,320,5.0,11.0,29,0.00,,,0.00,,2013-01-21 03:53:00,
2013-01-20 21:03:00,41.0,13.0,30.01,North,354,2.0,7.0,31,0.00,,,0.00,,2013-01-21 04:03:00,
2013-01-20 21:23:00,40.0,13.0,30.00,North,0,1.0,2.0,32,0.00,,,0.00,,2013-01-21 04:23:00,
2013-01-20 21:32:00,38.0,11.0,29.98,North,358,2.0,3.0,33,0.00,,,0.00,,2013-01-21 04:32:00,
2013-01-20 21:42:00,38.0,11.0,29.98,North,358,2.0,3.0,33,0.00,,,0.00,,2013-01-21 04:42:00,
2013-01-20 21:53:00,38.0,12.0,29.98,North,357,1.0,3.0,34,0.00,,,0.00,,2013-01-21 04:53:00,
2013-01-20 22:03:00,37.0,11.0,29.99,SSE,158,1.0,1.0,33,0.00,,,0.00,,2013-01-21 05:03:00,
2013-01-20 22:12:00,37.0,11.0,29.99,SSE,158,1.0,1.0,33,0.00,,,0.00,,2013-01-21 05:12:00,
2013-01-20 22:22:00,35.0,10.0,30.01,SE,135,0.0,2.0,35,0.00,,,0.00,,2013-01-21 05:22:00,
2013-01-20 22:33:00,34.0,11.0,29.99,SE,135,2.0,3.0,37,0.00,,,0.00,,2013-01-21 05:33:00,
2013-01-20 22:42:00,34.0,11.0,29.99,SE,135,2.0,3.0,37,0.00,,,0.00,,2013-01-21 05:42:00,
2013-01-20 22:53:00,33.0,10.0,29.99,East,90,1.0,2.0,38,0.00,,,0.00,,2013-01-21 05:53:00,
2013-01-20 23:02:00,32.0,9.0,30.00,SE,135,0.0,2.0,38,0.00,,,0.00,,2013-01-21 06:02:00,
2013-01-20 23:12:00,32.0,9.0,30.00,SE,135,0.0,2.0,38,0.00,,,0.00,,2013-01-21 06:12:00,
2013-01-20 23:23:00,32.0,10.0,30.01,ESE,113,1.0,1.0,39,0.00,,,0.00,,2013-01-21 06:23:00,
2013-01-20 23:33:00,31.0,10.0,29.99,NE,45,0.0,1.0,40,0.00,,,0.00,,2013-01-21 06:33:00,
2013-01-20 23:43:00,31.0,10.0,29.99,NE,45,0.0,1.0,40,0.00,,,0.00,,2013-01-21 06:43:00,
2013-01-20 23:53:00,32.0,12.0,29.99,North,11,2.0,3.0,43,0.00,,,0.00,,2013-01-21 06:53:00,